Faribault, MN

12:31 AM CDT on July 21, 2017 (GMT -0500)
Faribault Municipal

Weather History for KFBL - April, 2013

Change the Weather History Date:

Saturday, April 13, 2013

  Actual Average Record
Temperature  
Mean Temperature 32 °F -  
Max Temperature 35 °F 54 °F 84 °F (2006)
Min Temperature 28 °F 33 °F 14 °F (1962)
Degree Days  
Heating Degree Days 34    
Moisture  
Dew Point 26 °F    
Average Humidity 84    
Maximum Humidity 100    
Minimum Humidity 65    
Precipitation  
Precipitation 0.00 in - - ()
Sea Level Pressure  
Sea Level Pressure 29.89 in    
Wind  
Wind Speed 7 mph (WNW)    
Max Wind Speed 14 mph    
Max Gust Speed 18 mph    
Visibility 9 miles    
Events      
Averages and records for this station are not official NWS values.
T = Trace of Precipitation, MM = Missing Value Source: NWS Daily Summary

Daily Weather History Graph

Daily Weather History Graph

Search for Another Location

Airport or City:

Trip Planner

Search our weather history database for the weather conditions in past years. The results will help you decide how hot, cold, wet, or windy it might be!

Date:

Astronomy

Apr. 13, 2013 Rise Set
Actual Time 6:32 AM CDT 7:55 PM CDT
Civil Twilight 6:02 AM CDT 8:25 PM CDT
Nautical Twilight 5:26 AM CDT 9:02 PM CDT
Astronomical Twilight 4:47 AM CDT 9:41 PM CDT
Moon 8:18 AM CDT (4/13) 11:26 PM CDT (4/13)
Length of Visible Light 14h 23m
Length of Day
13h 23m
Waxing Crescent, 10% of the Moon is Illuminated
Apr 13
Waxing Crescent
Apr 18
First Quarter
Apr 25
Full
May 2
Last Quarter
May 9
New

Hourly Weather History & Observations

Time (CDT) Temp. Windchill Dew Point Humidity Pressure Visibility Wind Dir Wind Speed Gust Speed Precip Events Conditions
12:01 AM 30.2 °F 24.3 °F 28.4 °F 93% 29.84 in 7.0 mi WNW 5.8 mph - N/A   Overcast
12:21 AM 28.4 °F 22.2 °F 28.4 °F 100% 29.84 in 3.0 mi WNW 5.8 mph - N/A   Overcast
12:41 AM 28.4 °F 23.3 °F 28.4 °F 100% 29.84 in 3.0 mi West 4.6 mph - N/A   Overcast
1:01 AM 28.4 °F 24.6 °F 28.4 °F 100% 29.85 in 3.0 mi West 3.5 mph - N/A   Overcast
1:21 AM 28.4 °F - 28.4 °F 100% 29.85 in 5.0 mi West 2.3 mph - N/A   Overcast
1:41 AM 28.4 °F - 28.4 °F 100% 29.85 in 2.5 mi West 2.3 mph - N/A   Overcast
2:01 AM 28.4 °F 24.6 °F 28.4 °F 100% 29.85 in 2.5 mi West 3.5 mph - N/A   Overcast
2:21 AM 28.4 °F 24.6 °F 28.4 °F 100% 29.85 in 4.0 mi West 3.5 mph - N/A   Overcast
2:41 AM 28.4 °F 22.2 °F 28.4 °F 100% 29.84 in 7.0 mi West 5.8 mph - N/A   Overcast
3:01 AM 28.4 °F 23.3 °F 28.4 °F 100% 29.84 in 4.0 mi West 4.6 mph - N/A   Overcast
3:21 AM 28.4 °F 22.2 °F 28.4 °F 100% 29.84 in 4.0 mi West 5.8 mph - N/A   Overcast
3:41 AM 28.4 °F 24.6 °F 28.4 °F 100% 29.84 in 4.0 mi WSW 3.5 mph - N/A   Overcast
4:01 AM 28.4 °F 22.2 °F 28.4 °F 100% 29.84 in 7.0 mi West 5.8 mph - N/A   Overcast
4:21 AM 28.4 °F 22.2 °F 28.4 °F 100% 29.84 in 4.0 mi West 5.8 mph - N/A   Overcast
4:41 AM 28.4 °F 20.4 °F 28.4 °F 100% 29.84 in 7.0 mi West 8.1 mph - N/A   Overcast
5:01 AM 28.4 °F 18.0 °F 28.4 °F 100% 29.84 in 7.0 mi West 12.7 mph - N/A   Overcast
5:21 AM 28.4 °F 19.1 °F 26.6 °F 93% 29.85 in 10.0 mi West 10.4 mph - N/A   Overcast
5:41 AM 28.4 °F 17.5 °F 26.6 °F 93% 29.85 in 10.0 mi West 13.8 mph 17.3 mph N/A   Overcast
6:01 AM 28.4 °F 19.1 °F 26.6 °F 93% 29.85 in 10.0 mi West 10.4 mph - N/A   Overcast
6:21 AM 28.4 °F 19.7 °F 26.6 °F 93% 29.86 in 10.0 mi West 9.2 mph - N/A   Overcast
6:41 AM 28.4 °F 19.7 °F 26.6 °F 93% 29.86 in 10.0 mi West 9.2 mph 16.1 mph N/A   Overcast
7:01 AM 28.4 °F 18.5 °F 26.6 °F 93% 29.86 in 10.0 mi West 11.5 mph - N/A   Overcast
7:21 AM 28.4 °F 18.0 °F 26.6 °F 93% 29.87 in 10.0 mi West 12.7 mph - N/A   Overcast
7:41 AM 28.4 °F 19.7 °F 26.6 °F 93% 29.87 in 10.0 mi West 9.2 mph - N/A   Overcast
8:01 AM 28.4 °F 19.1 °F 26.6 °F 93% 29.88 in 10.0 mi West 10.4 mph - N/A   Overcast
8:21 AM 28.4 °F 18.5 °F 26.6 °F 93% 29.88 in 10.0 mi West 11.5 mph - N/A   Overcast
8:41 AM 28.4 °F 18.0 °F 24.8 °F 86% 29.89 in 10.0 mi West 12.7 mph 18.4 mph N/A   Overcast
9:01 AM 28.4 °F 20.4 °F 26.6 °F 93% 29.88 in 10.0 mi WSW 8.1 mph 16.1 mph N/A   Overcast
9:21 AM 28.4 °F 20.4 °F 26.6 °F 93% 29.88 in 10.0 mi West 8.1 mph - N/A   Overcast
9:41 AM 30.2 °F 21.3 °F 26.6 °F 86% 29.88 in 10.0 mi West 10.4 mph - N/A   Overcast
10:01 AM 30.2 °F 20.8 °F 26.6 °F 86% 29.89 in 10.0 mi West 11.5 mph 17.3 mph N/A   Overcast
10:21 AM 30.2 °F 20.8 °F 26.6 °F 86% 29.89 in 10.0 mi West 11.5 mph 16.1 mph N/A   Overcast
10:41 AM 30.2 °F 21.3 °F 26.6 °F 86% 29.89 in 10.0 mi West 10.4 mph - N/A   Overcast
11:01 AM 30.2 °F 21.3 °F 26.6 °F 86% 29.90 in 10.0 mi West 10.4 mph - N/A   Overcast
11:21 AM 30.2 °F 21.3 °F 26.6 °F 86% 29.90 in 10.0 mi West 10.4 mph - N/A   Overcast
11:41 AM 30.2 °F 22.6 °F 26.6 °F 86% 29.91 in 10.0 mi WSW 8.1 mph - N/A   Overcast
12:01 PM 32.0 °F 23.6 °F 26.6 °F 80% 29.91 in 10.0 mi West 10.4 mph - N/A   Overcast
12:21 PM 32.0 °F 23.6 °F 26.6 °F 80% 29.91 in 10.0 mi West 10.4 mph - N/A   Overcast
12:41 PM 30.2 °F 21.3 °F 26.6 °F 86% 29.92 in 10.0 mi West 10.4 mph - N/A   Overcast
1:01 PM 33.8 °F 27.0 °F 26.6 °F 75% 29.92 in 10.0 mi West 8.1 mph - N/A   Overcast
1:21 PM 32.0 °F 23.6 °F 26.6 °F 80% 29.91 in 10.0 mi West 10.4 mph - N/A   Overcast
1:41 PM 33.8 °F 24.8 °F 26.6 °F 75% 29.91 in 10.0 mi West 12.7 mph - N/A   Overcast
2:01 PM 33.8 °F 24.8 °F 24.8 °F 70% 29.91 in 10.0 mi West 12.7 mph - N/A   Overcast
2:21 PM 35.6 °F 28.0 °F 24.8 °F 65% 29.90 in 10.0 mi West 10.4 mph - N/A   Overcast
2:41 PM 35.6 °F 28.6 °F 24.8 °F 65% 29.91 in 10.0 mi West 9.2 mph 16.1 mph N/A   Overcast
3:01 PM 35.6 °F 27.1 °F 24.8 °F 65% 29.90 in 10.0 mi West 12.7 mph 17.3 mph N/A   Overcast
3:21 PM 35.6 °F 28.0 °F 24.8 °F 65% 29.90 in 10.0 mi West 10.4 mph - N/A   Overcast
3:41 PM 35.6 °F 27.5 °F 26.6 °F 70% 29.90 in 10.0 mi West 11.5 mph - N/A   Overcast
4:01 PM 33.8 °F 27.0 °F 24.8 °F 70% 29.90 in 10.0 mi West 8.1 mph - N/A   Overcast
4:21 PM 35.6 °F 29.2 °F 26.6 °F 70% 29.89 in 10.0 mi West 8.1 mph - N/A   Overcast
4:41 PM 35.6 °F 29.9 °F 26.6 °F 70% 29.89 in 10.0 mi WNW 6.9 mph - N/A   Overcast
5:01 PM 35.6 °F 29.2 °F 24.8 °F 65% 29.89 in 10.0 mi WNW 8.1 mph - N/A   Overcast
5:21 PM 35.6 °F 29.9 °F 24.8 °F 65% 29.89 in 10.0 mi NW 6.9 mph - N/A   Mostly Cloudy
5:41 PM 33.8 °F 29.6 °F 24.8 °F 70% 29.90 in 10.0 mi WNW 4.6 mph - N/A   Overcast
6:01 PM 35.6 °F - 24.8 °F 65% 29.90 in 10.0 mi WNW 1.2 mph - N/A   Overcast
6:21 PM 33.8 °F - 24.8 °F 70% 29.90 in 10.0 mi Calm Calm - N/A   Overcast
6:41 PM 33.8 °F 30.8 °F 24.8 °F 70% 29.91 in 10.0 mi WSW 3.5 mph - N/A   Overcast
7:01 PM 33.8 °F - 24.8 °F 70% 29.91 in 10.0 mi NNW 1.2 mph - N/A   Overcast
7:21 PM 33.8 °F - 24.8 °F 70% 29.90 in 10.0 mi NE 1.2 mph - N/A   Overcast
7:41 PM 33.8 °F - 24.8 °F 70% 29.90 in 10.0 mi North 2.3 mph - N/A   Overcast
8:01 PM 32.0 °F - 24.8 °F 75% 29.91 in 10.0 mi North 2.3 mph - N/A   Mostly Cloudy
8:21 PM 30.2 °F - 24.8 °F 80% 29.91 in 10.0 mi NNE 2.3 mph - N/A   Scattered Clouds
8:41 PM 30.2 °F 26.7 °F 24.8 °F 80% 29.91 in 10.0 mi NNE 3.5 mph - N/A   Clear
9:01 PM 30.2 °F - 24.8 °F 80% 29.92 in 10.0 mi NE 1.2 mph - N/A   Clear
9:21 PM 30.2 °F - 24.8 °F 80% 29.93 in 10.0 mi NNE 1.2 mph - N/A   Clear
9:41 PM 28.4 °F - 24.8 °F 86% 29.94 in 10.0 mi NNE 1.2 mph - N/A   Scattered Clouds
10:01 PM 28.4 °F - 24.8 °F 86% 29.94 in 10.0 mi NE 2.3 mph - N/A   Mostly Cloudy
10:21 PM 28.4 °F - 24.8 °F 86% 29.94 in 10.0 mi ENE 2.3 mph - N/A   Overcast
10:41 PM 30.2 °F - 24.8 °F 80% 29.95 in 10.0 mi East 1.2 mph - N/A   Overcast
11:12 PM 30.2 °F - 26.6 °F 86% 29.94 in 10.0 mi ENE 2.3 mph - N/A   Overcast
11:21 PM 30.2 °F - 24.8 °F 80% 29.93 in 10.0 mi ENE 2.3 mph - N/A   Overcast
11:41 PM 30.2 °F - 24.8 °F 80% 29.93 in 10.0 mi NE 2.3 mph - N/A   Overcast